Theta_e
352 352 352 348 346 347 346 348 352 355 354 354 354 354 355 354 355 355 355 356 357 357 357 356 356 355 355 354 354 354 354 355 355 354 353 353 353 352 351 351 353 353 351 352 351 351 351 352 350 350 351 351 351 350 349 348 347 347 346 346 345 344 344 343 344 344 343 342 340 343 345 345 343 342 342 343 341 339 337 336 338 336 337 339 337
350 353 353 352 347 348 348 349 353 354 354 354 354 354 355 354 354 354 355 355 356 356 356 356 355 355 354 353 354 354 354 354 354 353 353 353 353 352 351 350 349 351 352 351 351 349 350 350 349 349 350 350 350 349 348 347 347 346 345 344 344 344 343 343 343 342 340 340 340 343 343 342 342 342 341 342 341 339 337 336 336 338 336 338 338
353 354 355 357 353 351 349 350 352 354 354 353 354 355 354 354 354 355 355 355 355 355 355 355 355 355 355 354 354 355 354 354 353 353 353 352 352 352 351 350 349 349 350 350 350 350 350 350 350 350 350 349 348 347 346 346 345 344 344 344 343 343 343 343 343 341 339 342 341 342 343 343 344 344 343 342 340 337 336 338 339 339 337 340 339
350 353 358 356 355 349 349 351 353 355 355 353 353 354 355 355 355 355 355 355 355 355 355 354 354 354 354 355 354 354 354 353 353 352 352 351 351 351 351 350 350 350 350 350 350 350 350 349 349 349 349 348 347 346 345 345 344 343 343 343 343 344 343 344 344 343 344 345 343 343 344 345 344 343 340 338 336 336 340 341 341 341 339 339 339
351 354 359 358 357 355 351 352 352 352 354 353 353 354 355 354 354 354 354 355 355 354 354 355 354 354 354 354 354 354 353 353 352 351 351 350 350 349 349 349 350 351 351 351 351 351 350 348 348 347 347 346 345 345 344 343 342 342 342 342 343 348 345 346 346 345 345 344 344 343 343 343 343 340 339 337 335 338 340 340 340 339 339 339 339
352 358 361 356 352 358 354 353 354 355 354 353 353 353 353 352 353 354 354 354 354 354 354 353 353 353 353 354 353 353 352 351 351 350 350 350 350 349 348 349 349 350 349 349 351 351 350 349 347 347 347 346 345 344 343 342 342 343 346 346 347 348 347 347 346 345 344 345 344 341 340 340 339 338 337 336 336 337 338 338 338 339 338 339 339
353 361 360 359 354 357 355 354 355 354 354 353 352 352 352 352 353 353 353 354 354 354 354 353 353 353 353 352 352 352 351 350 350 350 349 349 349 348 347 348 348 348 349 348 349 349 349 348 347 347 346 345 344 344 343 343 342 342 343 346 346 346 346 346 345 344 343 345 341 338 337 333 335 336 334 338 338 338 337 339 339 340 339 339 338
353 356 357 356 354 357 355 355 355 355 354 353 352 352 352 353 352 353 352 353 353 353 353 353 353 353 352 352 352 351 351 351 350 349 349 349 348 347 348 348 347 347 349 348 348 348 348 348 347 346 345 345 344 343 343 342 342 341 344 346 346 345 345 344 342 341 340 340 336 337 336 334 335 335 336 340 341 339 339 341 341 340 339 340 340
350 354 355 355 355 355 355 355 355 355 354 353 353 352 352 352 352 352 351 351 352 352 352 352 352 352 352 351 351 351 351 350 351 349 348 348 347 347 346 347 346 346 348 347 346 347 347 347 347 346 345 344 344 344 343 342 342 342 343 345 345 344 345 343 342 341 343 338 336 336 338 336 338 338 339 341 342 340 338 339 339 338 338 339 339
350 352 354 355 356 355 355 355 355 354 354 353 352 352 352 351 352 351 350 351 351 352 352 352 352 352 351 351 351 351 350 350 349 349 348 348 346 346 347 346 346 347 347 347 347 346 347 346 346 345 345 345 344 344 343 343 342 343 343 345 345 345 344 342 341 344 338 337 336 336 342 351 338 336 338 337 336 336 338 337 340 339 338 337 338
353 354 353 356 357 354 353 354 355 354 353 353 353 352 351 351 351 350 351 351 351 351 352 352 352 352 351 350 350 350 350 349 349 348 348 348 346 346 346 345 345 344 343 346 347 346 346 346 345 346 346 345 344 343 343 342 343 343 344 345 345 344 344 343 343 338 339 337 336 338 340 344 339 338 339 338 339 338 338 340 340 339 338 338 337
350 350 355 353 355 353 354 355 354 353 353 352 352 352 351 351 351 351 351 351 351 352 352 352 352 351 351 350 350 350 350 349 349 349 348 348 348 348 347 345 344 345 345 346 346 346 346 345 345 346 346 345 345 344 343 344 344 343 344 345 345 344 343 343 342 339 339 337 336 337 338 338 338 338 340 340 339 339 339 339 339 338 338 337 337
351 352 349 353 353 352 354 354 352 351 351 352 352 351 351 351 351 351 351 351 351 351 352 352 351 351 351 350 350 350 349 349 349 348 348 349 348 348 347 346 345 345 345 346 346 346 345 345 346 345 346 345 345 345 345 345 345 344 343 344 344 344 343 343 341 338 338 338 336 337 337 338 340 338 339 339 339 339 339 339 338 338 337 338 337
350 351 349 349 351 354 353 353 352 352 352 352 351 351 351 351 351 351 350 350 351 351 351 351 351 350 349 348 348 348 348 348 347 348 348 347 347 347 347 346 346 346 346 345 345 345 345 345 345 345 347 346 346 345 346 346 345 345 345 345 344 342 341 342 345 339 339 337 339 336 337 340 342 340 336 337 339 339 339 339 337 338 337 337 336
348 349 351 351 351 354 354 352 352 351 351 351 351 351 351 351 350 350 349 350 350 350 350 350 350 349 348 348 348 347 347 348 348 348 348 348 348 347 347 346 346 346 345 346 345 345 344 344 344 345 346 346 346 346 346 346 345 345 344 345 344 343 342 340 339 339 338 337 337 336 336 341 342 340 337 334 339 339 339 339 338 337 338 337 336
350 350 350 351 350 351 352 353 351 351 351 351 351 351 351 350 350 349 350 350 349 349 349 350 349 349 349 348 347 347 347 348 348 348 348 348 348 348 348 347 346 346 347 345 345 344 343 343 343 344 346 346 346 346 346 346 345 345 345 344 344 345 345 347 342 340 337 338 338 337 336 341 342 340 338 336 338 340 340 339 339 337 337 334 334
349 350 350 350 350 350 351 351 351 350 349 350 350 350 350 349 349 349 349 349 349 349 349 350 349 349 349 348 347 346 346 347 347 347 347 347 347 348 347 347 346 347 345 344 344 343 343 344 344 346 345 345 346 346 346 345 345 345 345 345 345 347 347 347 340 340 339 339 337 337 338 338 341 340 339 338 339 340 339 338 338 338 337 334 332
348 348 348 348 348 349 350 350 350 349 353 350 347 348 349 348 348 348 348 348 348 348 348 348 349 348 347 346 344 343 343 345 346 347 347 346 347 347 347 347 346 346 345 344 343 343 343 343 344 345 345 344 344 345 345 345 346 347 347 347 347 347 348 348 343 339 339 339 339 339 339 341 341 339 339 340 340 340 338 338 338 338 338 336 334
345 347 347 346 346 347 348 350 345 343 345 350 347 350 346 344 347 348 347 346 346 346 345 346 347 346 345 344 342 341 341 341 343 345 346 346 346 347 347 346 346 345 345 345 344 343 343 344 345 345 344 344 344 346 345 346 346 346 348 348 347 348 347 348 342 339 340 339 340 339 343 343 342 340 338 337 340 339 338 337 337 338 337 335 335
344 343 343 345 346 346 347 348 350 352 348 344 346 347 342 340 345 346 345 343 344 344 346 346 346 345 345 343 342 344 342 342 341 345 344 345 345 345 346 346 345 345 345 345 345 345 345 346 346 345 344 344 345 345 345 345 345 347 347 348 346 348 349 345 342 339 339 338 341 341 344 344 342 342 341 337 338 340 340 338 337 337 336 335 336
342 343 343 344 346 346 347 349 350 349 346 341 341 344 343 342 344 344 344 343 343 344 345 346 345 344 344 344 344 348 347 344 344 345 345 346 345 345 345 346 345 345 344 345 345 344 345 346 346 345 344 345 345 346 345 345 345 346 347 348 347 346 351 345 343 340 340 338 339 339 344 343 344 342 343 340 340 340 340 339 338 338 337 335 336
339 340 343 345 346 347 348 347 347 349 350 346 342 339 344 345 343 348 347 346 343 344 348 351 346 352 345 349 351 343 342 342 341 343 344 347 348 346 346 346 345 345 344 344 343 343 345 345 346 346 345 344 343 342 343 346 345 345 347 349 345 346 351 347 344 341 339 340 340 342 343 342 343 343 343 340 339 341 341 339 339 338 336 335 336
340 341 343 345 346 346 346 346 347 348 350 350 349 349 345 344 347 344 344 340 343 349 347 349 349 347 349 349 348 350 348 346 345 346 343 340 348 345 345 345 345 345 343 344 343 342 342 344 345 346 345 345 342 342 340 341 341 345 347 346 342 343 347 346 345 343 341 340 339 345 344 342 342 343 341 340 340 340 341 339 339 338 337 336 336
341 341 342 345 346 346 346 348 349 349 347 348 349 349 348 348 347 348 346 341 344 348 348 348 348 349 347 350 349 349 350 348 345 345 345 348 347 344 344 344 345 342 342 343 343 344 343 343 344 345 345 344 340 338 338 339 340 340 341 340 337 340 345 345 344 344 343 340 338 346 343 342 342 343 342 341 340 339 340 339 339 338 337 336 337
342 342 341 342 345 347 348 348 349 348 347 346 347 346 348 346 346 347 347 346 347 348 348 348 349 350 349 348 350 350 350 348 348 349 347 349 349 348 345 345 344 342 340 346 345 345 344 341 344 345 343 340 338 339 339 339 341 341 341 339 339 341 341 343 344 343 343 342 343 346 343 343 343 344 342 342 340 341 340 339 340 339 338 337 337
343 339 340 342 345 346 347 347 348 347 346 345 346 345 347 345 346 345 346 347 347 346 346 348 347 348 347 347 349 349 349 347 348 347 347 348 347 345 345 346 346 344 342 342 343 344 340 342 339 336 339 342 340 340 340 340 337 336 339 339 340 340 339 338 340 341 343 344 347 346 343 343 344 345 342 342 341 341 340 340 340 339 339 338 338
332 333 336 336 339 345 346 348 346 347 347 347 346 345 345 346 346 345 344 345 345 345 344 345 347 348 347 347 347 346 346 345 346 346 346 347 346 346 346 347 347 346 347 344 342 341 343 343 340 340 341 340 340 339 338 338 338 337 338 337 339 338 339 337 337 338 340 343 347 345 344 343 345 345 343 343 342 341 341 341 340 340 339 338 338
333 333 335 335 341 343 346 346 346 346 346 346 345 345 346 346 346 345 345 344 343 342 342 343 345 346 347 347 346 345 345 344 345 346 345 346 346 348 348 346 346 346 348 347 344 345 342 343 343 345 340 339 338 339 338 336 337 337 338 337 336 339 340 337 337 338 340 343 345 345 344 344 344 345 345 343 342 342 342 341 341 341 340 339 339
337 336 337 341 342 343 344 345 346 345 345 345 345 344 344 345 345 343 343 343 343 343 343 345 344 345 346 346 346 345 344 343 344 344 345 345 345 346 345 344 346 345 347 346 346 345 344 344 344 344 345 343 340 341 338 338 340 339 336 335 336 337 338 339 339 335 337 340 343 348 345 344 344 345 345 344 344 343 343 342 342 341 341 340 339
336 339 339 339 343 344 344 345 346 346 346 345 345 345 343 342 344 344 343 344 343 346 347 344 345 344 345 346 344 343 343 342 342 342 343 343 344 345 345 344 345 345 344 345 344 344 343 342 342 342 342 343 341 341 342 340 339 339 338 336 336 336 338 336 337 336 336 339 341 344 345 345 345 345 345 345 345 344 343 342 343 341 341 340 340
335 339 340 341 341 343 343 344 345 346 347 345 345 346 346 343 344 344 343 344 346 346 346 346 345 344 344 346 346 346 346 344 343 342 341 341 343 344 344 345 344 344 345 343 343 343 342 341 343 342 343 342 342 344 342 341 341 339 339 338 337 338 337 338 336 335 334 335 337 341 345 346 345 344 345 345 345 344 344 343 342 342 342 341 340
338 334 335 342 343 343 343 343 345 346 345 345 346 346 345 344 346 345 345 347 348 347 344 343 341 341 340 341 342 342 343 345 345 343 342 341 343 343 343 343 342 343 345 344 342 343 342 342 341 343 344 344 343 344 345 342 342 339 339 338 338 339 337 337 336 334 333 335 336 338 344 345 345 345 346 345 345 346 345 344 344 343 343 343 342
339 340 339 342 343 344 343 344 346 347 345 345 345 345 346 346 346 346 347 347 347 346 343 341 340 340 341 342 341 341 343 342 344 345 343 343 343 344 343 344 344 345 346 346 345 343 342 341 343 343 342 344 343 344 345 343 342 342 342 341 340 338 337 338 339 338 335 334 335 335 339 342 346 346 347 345 345 345 345 345 345 344 343 343 342
338 338 340 342 346 346 345 344 345 346 347 347 347 344 347 346 346 346 347 346 346 344 342 343 339 339 341 341 340 341 341 342 341 341 341 343 344 342 343 341 342 344 344 344 342 342 341 341 342 341 340 342 342 343 343 343 342 342 342 341 341 342 341 340 340 339 338 337 336 339 338 340 345 348 347 346 345 345 346 346 345 345 344 344 343
339 339 340 343 345 346 346 343 345 344 345 345 345 346 347 346 346 346 346 346 346 344 341 342 340 339 339 337 340 340 340 340 340 341 340 338 339 338 338 338 340 343 342 343 342 342 342 341 339 340 342 341 339 341 342 342 342 342 343 344 342 339 340 339 342 343 339 340 341 341 343 342 342 346 346 348 346 345 345 346 347 346 346 345 344
340 342 343 345 344 347 347 345 345 344 344 344 344 345 347 347 346 342 347 347 345 345 341 341 341 338 338 338 340 340 339 339 339 339 339 339 337 337 336 339 339 340 341 343 342 340 341 341 341 341 339 339 339 340 340 340 342 341 343 343 343 343 342 341 341 340 343 345 342 343 345 345 348 350 347 348 347 346 345 345 346 347 347 346 345
341 342 343 344 343 345 347 346 345 345 346 345 345 344 344 345 347 346 343 347 345 343 341 341 340 339 339 337 340 340 339 338 339 339 338 338 336 337 337 338 340 339 341 342 341 341 341 340 340 340 339 339 339 340 341 340 340 342 343 343 342 343 343 343 341 341 340 339 342 343 345 345 348 345 349 347 350 351 346 345 345 346 346 346 346
340 341 342 342 341 344 345 346 346 346 345 345 345 345 345 345 345 345 345 343 345 341 342 340 339 337 338 338 339 339 339 339 339 338 338 338 337 336 338 338 338 338 337 337 337 339 342 342 340 340 339 340 338 338 339 340 339 339 340 341 342 341 342 343 344 343 341 338 340 341 344 347 346 346 347 349 349 348 350 347 345 345 345 346 346
337 339 342 344 341 341 345 346 346 346 345 345 345 345 345 344 344 345 345 345 345 344 341 340 339 339 338 339 340 340 339 338 339 339 338 336 336 336 336 337 337 336 336 335 335 336 337 338 340 339 338 337 337 338 338 338 338 337 335 339 341 340 342 342 341 340 343 342 340 341 341 343 344 344 348 348 347 349 348 349 349 346 344 344 345
336 337 337 339 340 340 342 344 345 345 344 344 344 342 342 339 338 340 341 342 343 341 344 341 341 339 340 339 339 340 338 339 338 338 337 337 335 335 337 337 336 335 334 334 334 334 335 335 335 334 334 335 335 335 337 336 338 338 337 337 338 338 337 340 339 337 340 340 339 339 337 340 342 341 342 344 346 346 348 349 347 346 345 345 344
337 338 337 336 337 337 339 339 342 344 342 341 340 339 337 338 338 338 339 341 341 342 342 343 340 339 340 338 338 337 338 338 337 337 337 335 337 336 337 335 336 335 335 334 335 335 336 335 334 334 333 332 332 335 334 335 332 333 336 335 338 336 337 338 337 338 337 338 339 338 336 337 337 339 342 343 343 343 345 347 348 346 345 347 347
333 334 335 337 338 338 338 339 340 341 340 341 341 341 342 339 338 336 336 337 338 338 338 341 339 338 340 339 339 338 338 338 338 338 338 337 336 335 335 335 336 335 335 335 334 334 334 334 333 331 332 330 330 331 333 332 328 324 325 328 331 334 337 338 335 334 336 339 339 338 338 334 333 337 341 340 341 338 340 343 346 346 345 348 344
331 331 333 334 335 336 336 337 338 339 338 338 339 338 341 344 341 338 337 336 339 341 338 339 339 337 339 338 338 338 338 336 337 337 337 336 336 335 334 335 336 335 334 334 334 332 333 332 332 329 328 331 330 333 333 334 327 328 328 324 320 322 332 332 335 334 334 335 339 337 337 335 334 336 338 340 340 342 339 339 341 344 347 347 346
328 330 330 331 332 333 334 336 338 338 338 338 339 340 340 341 342 342 342 340 337 339 341 339 339 337 337 338 338 337 336 335 335 334 335 336 336 335 335 334 335 336 334 333 333 333 334 334 333 332 331 327 327 328 333 334 332 327 319 319 322 322 317 324 330 333 333 334 333 333 335 335 337 337 337 335 337 342 344 342 340 344 345 345 346
328 329 330 330 330 332 333 334 335 336 338 338 339 339 340 341 342 342 343 341 341 337 335 335 336 336 336 337 337 337 336 335 335 335 334 334 335 336 335 336 335 335 334 332 333 333 333 333 333 332 331 328 325 328 331 332 332 332 327 321 317 315 316 321 327 329 332 329 329 330 333 333 335 337 337 336 336 338 339 339 342 343 344 345 344
328 329 330 330 331 330 333 333 334 334 334 335 336 336 335 338 338 336 335 334 332 331 330 332 332 332 333 339 338 336 336 336 335 335 333 333 334 335 336 335 334 335 335 334 334 334 334 332 332 332 331 331 327 324 325 332 331 331 331 331 330 322 319 321 321 317 332 331 330 328 330 332 334 335 337 337 335 337 338 338 341 340 342 342 342
328 330 331 331 330 330 331 331 331 331 332 332 333 335 334 336 336 335 333 332 332 334 337 338 336 334 336 337 337 339 337 335 337 335 335 334 334 335 335 335 335 335 335 334 333 334 331 330 332 330 330 330 329 323 324 327 331 330 329 329 330 330 328 324 318 321 320 327 329 327 328 329 331 332 333 333 333 334 335 334 334 335 337 337 334
328 330 330 330 330 330 330 330 331 331 331 332 332 333 334 336 336 334 333 329 329 334 338 339 339 338 336 338 338 338 339 338 336 336 335 334 334 334 335 335 333 334 332 332 333 333 333 333 333 333 332 329 329 325 324 325 323 326 328 328 328 326 325 327 328 323 319 319 322 325 328 328 329 329 330 331 330 332 331 332 330 331 332 329 330
327 328 329 330 330 330 330 330 330 331 331 331 331 331 332 333 333 333 332 333 331 329 331 333 334 337 338 338 339 340 339 340 338 336 336 333 332 332 333 334 333 333 333 333 333 333 334 334 333 332 330 330 328 328 326 324 324 325 325 324 324 324 323 324 325 327 322 318 317 319 322 325 328 327 330 331 328 328 330 330 327 326 326 327 329
326 327 328 328 329 330 330 329 329 329 330 331 331 331 331 330 329 330 330 330 332 333 333 332 331 331 331 336 340 339 338 339 340 338 337 334 333 333 332 332 333 333 332 332 333 333 334 334 334 333 332 330 329 326 326 327 326 327 325 327 323 322 321 321 322 322 322 323 317 317 321 321 320 323 327 327 327 327 327 327 327 325 324 328 328
325 326 326 326 327 328 328 328 329 330 330 330 331 330 330 329 328 328 328 328 329 329 329 330 331 329 330 329 331 332 337 338 338 340 338 336 336 335 334 333 334 334 333 333 332 332 333 333 334 333 332 330 327 327 326 327 326 326 324 323 323 323 322 319 320 321 321 321 319 318 320 320 319 321 324 324 325 326 327 327 325 323 322 322 325
Wind_Speed
7 12 15 19 11 9 6 6 7 12 12 12 12 13 14 14 14 13 13 12 12 12 12 12 12 12 12 12 12 12 12 11 11 11 10 9 9 9 10 10 11 11 11 11 12 12 11 11 11 12 13 13 13 13 12 12 11 11 11 12 11 10 10 11 11 11 11 11 10 13 13 11 12 12 12 12 12 10 8 7 8 8 8 10 8
9 9 14 19 21 14 9 7 7 10 10 11 11 11 12 13 13 13 12 12 12 11 11 11 11 11 11 11 11 11 11 11 11 11 10 9 9 9 10 10 11 12 10 10 11 12 12 12 12 12 13 13 13 13 13 12 12 11 12 11 11 10 10 10 11 10 9 12 10 13 12 10 11 11 12 12 11 9 5 2 1 7 8 11 11
8 9 12 17 21 22 17 10 10 11 10 10 10 11 11 11 13 13 13 12 12 11 11 10 10 10 10 10 10 10 10 10 10 10 10 9 9 9 9 10 10 11 11 11 11 12 12 12 12 13 12 13 12 12 13 12 12 12 11 11 10 10 10 10 10 9 8 12 10 12 13 13 13 13 13 13 11 7 5 8 13 13 10 12 12
8 9 12 13 16 18 19 18 15 15 13 11 11 10 10 10 11 12 12 12 11 11 11 11 11 10 10 10 10 9 9 9 9 9 9 9 9 9 9 9 9 11 13 13 13 13 13 12 12 12 12 12 12 12 12 12 12 11 11 10 9 9 10 10 10 9 9 10 10 9 8 10 12 13 13 11 10 10 11 13 15 15 13 11 13
8 9 12 12 13 16 18 18 17 17 15 13 12 10 9 10 10 11 11 11 11 11 11 11 10 10 9 9 9 9 8 8 8 8 8 8 8 10 10 7 8 10 12 13 13 12 12 12 12 12 11 12 12 12 12 12 12 11 10 9 9 10 10 13 11 9 8 9 10 7 8 10 10 13 11 11 9 11 12 12 12 12 13 12 12
8 9 9 10 11 13 15 16 17 17 16 15 13 12 10 10 10 10 10 10 11 11 11 10 10 9 9 9 9 8 8 7 7 7 7 7 12 12 7 8 8 7 9 9 12 12 12 12 12 12 12 12 13 12 12 11 11 11 10 9 11 13 14 12 11 8 6 7 12 5 7 7 8 9 11 11 10 10 11 12 11 12 12 12 11
10 7 7 8 10 10 13 13 15 16 16 15 14 13 11 11 10 10 10 10 10 10 10 10 9 9 8 8 8 8 8 7 7 6 6 8 11 9 8 8 8 8 9 8 9 10 11 11 12 12 12 12 12 12 11 10 10 10 10 10 10 11 12 13 11 9 8 9 5 5 6 7 9 7 8 11 11 11 11 12 12 12 11 11 11
9 6 6 8 10 12 12 13 14 14 15 15 14 13 12 11 11 10 10 10 10 10 10 10 9 9 8 8 8 8 8 7 7 6 6 14 10 6 9 10 8 8 7 7 7 9 9 10 11 12 12 12 11 11 10 9 9 9 12 11 12 12 11 11 10 7 7 4 4 4 6 8 8 8 8 11 11 11 11 14 12 10 11 12 13
10 7 6 8 11 13 10 10 12 13 13 13 13 13 12 11 10 10 10 10 10 10 10 10 10 9 9 8 8 8 8 8 7 8 11 13 10 7 7 8 8 8 8 7 5 4 9 9 11 11 12 12 11 11 10 9 9 9 10 12 12 12 11 11 9 9 9 4 3 5 6 9 8 9 10 12 12 11 11 13 12 12 11 11 9
10 7 8 7 9 12 9 10 11 12 13 13 13 13 12 11 10 10 10 10 10 9 9 9 9 9 9 9 9 9 9 8 7 8 11 11 9 6 5 7 9 9 7 8 6 7 9 8 10 12 12 12 11 11 9 9 10 10 10 11 12 12 11 9 8 13 3 5 8 6 8 8 9 8 10 9 10 9 9 8 12 9 8 10 13
10 10 9 8 11 10 10 9 10 11 11 12 12 13 12 10 10 10 10 10 9 9 9 9 9 9 9 9 8 9 8 8 8 8 9 9 8 7 6 5 8 6 5 5 6 5 9 9 10 12 12 12 12 11 9 9 9 8 9 9 10 11 12 11 15 5 5 5 5 6 8 5 8 9 10 11 10 8 10 14 12 12 10 11 11
9 10 8 10 13 11 10 8 10 10 10 9 11 12 12 10 10 10 10 10 9 8 9 9 9 9 9 9 8 8 8 8 8 8 8 9 9 9 8 7 6 6 6 7 7 7 7 9 10 12 11 12 11 10 10 8 7 8 8 9 9 9 10 9 8 6 5 5 8 9 8 5 9 11 11 11 10 10 10 11 11 11 11 11 11
9 10 8 10 11 11 11 10 10 10 10 10 10 11 10 10 9 9 10 9 8 8 8 8 9 9 9 8 8 8 8 8 8 8 8 8 6 7 9 8 7 8 6 7 7 8 7 9 11 11 11 11 10 9 7 7 7 7 8 8 8 7 10 7 4 4 6 6 6 7 7 7 9 10 8 11 11 10 11 10 10 10 10 11 11
9 8 8 9 10 13 12 11 9 9 9 9 9 9 9 10 9 9 9 8 8 8 8 8 8 9 9 8 8 8 8 8 8 8 7 8 7 7 9 10 9 9 8 7 7 10 9 10 11 12 11 11 10 9 7 7 7 6 7 7 7 5 6 8 4 4 5 6 5 7 7 6 10 11 6 9 12 11 10 9 9 9 10 10 10
9 6 7 8 9 11 14 11 10 9 8 7 8 8 8 9 9 9 9 8 8 8 8 8 8 9 9 8 8 8 8 8 8 7 7 8 8 8 9 10 10 9 8 8 10 10 10 10 11 12 11 11 10 9 8 7 8 7 6 6 6 5 8 1 2 4 4 4 5 6 7 8 15 11 9 7 11 10 10 9 9 10 10 9 9
8 8 8 9 9 9 8 11 9 8 8 8 7 8 9 8 8 8 8 8 8 8 8 8 8 9 9 9 8 8 7 8 8 8 7 8 9 8 9 10 9 9 10 11 10 10 10 10 11 11 11 10 10 9 8 8 7 7 7 7 7 7 9 10 2 5 5 4 5 4 6 9 14 12 9 8 10 10 10 10 10 10 9 7 9
8 8 8 8 9 8 7 7 8 8 8 8 8 8 9 9 8 9 8 9 8 8 8 7 7 8 8 9 8 7 7 7 7 8 8 7 8 8 8 9 10 9 11 11 10 10 10 11 11 11 10 10 9 9 8 8 7 6 6 7 8 9 10 10 3 4 5 6 5 5 5 8 10 11 11 10 10 11 10 10 10 10 9 9 7
8 8 8 7 6 7 6 7 8 6 6 7 7 8 8 8 9 8 8 8 8 7 7 6 8 8 8 9 8 6 5 5 7 8 8 8 7 7 8 8 9 9 11 11 11 11 11 11 11 10 9 9 9 8 7 6 5 5 5 5 6 8 10 11 6 4 5 6 6 6 6 14 13 10 10 11 11 11 10 8 9 10 9 9 9
8 7 7 6 5 6 6 5 7 6 3 1 4 6 7 6 9 8 8 8 8 6 5 6 7 7 8 8 6 5 4 3 2 6 8 7 7 8 7 8 8 9 11 11 11 11 11 11 10 9 9 9 8 7 5 4 4 4 4 4 5 6 7 7 7 5 6 6 5 6 8 18 14 11 9 10 12 11 9 9 8 10 10 9 9
7 7 7 5 5 5 4 4 3 2 5 4 2 5 5 2 6 8 7 7 6 5 5 6 7 6 7 7 6 4 3 3 2 5 6 7 5 4 7 7 8 9 10 10 11 11 11 11 9 9 9 9 8 6 3 3 3 3 4 5 5 6 6 5 6 5 5 5 4 5 15 13 13 11 10 10 10 10 9 9 8 9 9 9 9
6 6 6 5 4 4 4 3 3 2 4 5 3 1 6 5 3 7 7 6 6 4 5 6 5 5 5 6 5 2 2 2 2 2 7 2 6 7 7 7 8 9 8 9 10 11 11 10 10 9 8 7 6 5 5 4 4 4 4 6 6 7 4 4 4 3 4 6 5 7 15 12 9 11 11 12 11 11 10 11 10 10 9 9 8
6 6 5 5 3 3 3 2 3 2 2 4 5 7 2 3 7 6 5 6 5 5 5 2 2 3 5 4 2 5 4 1 3 1 2 7 7 6 7 7 8 9 8 8 8 9 10 10 10 9 7 6 8 7 6 5 5 4 6 6 7 3 3 3 4 4 3 4 5 13 14 12 9 8 13 10 11 12 11 10 10 10 10 9 9
5 4 5 4 3 3 3 3 3 3 2 1 2 2 5 5 3 6 2 5 2 4 3 3 3 3 1 1 1 1 2 4 4 2 2 3 5 6 6 7 8 9 9 8 9 8 7 9 9 7 5 6 8 6 5 5 5 7 6 7 5 2 2 4 4 4 4 3 3 15 14 12 9 8 10 10 9 11 12 10 10 10 10 9 10
5 4 5 4 3 3 3 3 3 3 2 3 2 1 1 1 1 1 4 6 5 3 2 1 1 2 2 1 1 1 1 2 4 4 4 4 6 5 6 8 8 9 7 5 8 7 5 5 5 4 7 7 6 5 5 4 4 5 5 5 4 3 3 4 4 3 4 4 4 15 15 12 10 9 10 10 11 10 11 11 11 11 10 10 10
6 6 5 5 4 4 3 5 4 3 3 2 3 2 2 1 2 1 1 2 1 1 2 1 2 1 1 1 1 0 1 2 2 2 2 2 3 4 5 5 5 7 6 5 5 5 8 7 6 7 6 6 4 4 4 3 3 4 4 4 3 3 3 3 3 3 3 4 7 13 15 12 10 10 11 10 11 11 11 11 11 12 11 11 11
6 6 5 5 6 5 5 4 4 4 4 3 2 2 1 2 1 2 1 1 1 1 1 1 2 1 1 0 0 1 1 1 1 1 2 2 2 1 1 1 2 5 9 6 3 4 5 5 6 6 5 5 4 3 4 3 4 4 4 4 4 4 4 4 3 3 3 3 9 12 15 12 10 10 11 10 11 11 12 12 11 11 12 12 12
8 8 8 8 5 5 5 4 5 4 3 3 3 2 2 2 1 3 3 2 0 0 1 1 2 2 2 1 1 1 1 1 1 1 1 2 2 1 0 1 1 1 1 2 7 9 8 5 4 5 4 4 4 5 5 5 5 5 5 4 5 5 4 4 4 4 4 3 9 13 14 13 12 11 10 10 11 11 12 12 12 12 12 13 13
5 4 2 2 3 5 4 3 4 3 3 3 2 2 3 2 3 1 2 4 2 2 3 3 2 1 2 2 1 3 1 1 1 1 1 1 1 0 0 1 1 0 1 1 2 1 0 1 2 3 4 5 5 5 5 5 5 6 4 5 5 6 5 4 3 3 4 4 6 12 14 14 13 12 11 12 11 11 12 13 13 13 13 13 13
6 3 3 2 2 3 3 3 3 3 2 2 3 2 2 2 2 3 3 2 2 2 3 1 1 2 1 3 3 2 2 1 1 1 0 0 0 1 0 0 1 1 0 0 0 1 2 2 2 3 3 3 4 4 5 5 4 5 6 6 6 6 5 5 4 5 5 5 4 11 16 15 14 14 13 13 13 12 12 12 13 13 13 13 13
3 1 3 2 1 3 3 4 3 2 3 1 2 2 2 1 2 3 1 0 2 2 1 1 1 1 1 2 3 2 2 2 1 1 0 1 0 1 0 1 1 1 0 0 1 1 1 1 3 4 3 4 5 3 3 5 5 5 5 6 6 6 5 6 6 6 5 4 4 7 16 15 14 15 14 14 15 14 13 13 14 14 14 13 13
2 1 3 4 4 2 4 3 3 3 2 3 3 3 2 2 2 2 2 1 2 1 1 1 1 2 2 2 2 1 1 1 1 1 1 1 0 1 0 0 0 1 1 1 1 2 2 2 2 2 2 3 4 3 5 4 5 6 6 7 5 5 5 5 6 6 7 6 6 5 11 16 15 15 14 14 15 15 14 14 14 14 14 14 14
4 7 6 3 3 4 3 4 3 2 2 2 2 2 2 2 2 1 2 2 1 1 0 1 2 2 3 2 1 1 0 1 1 1 1 1 0 0 0 1 0 0 1 1 1 1 2 2 3 2 3 3 3 3 3 4 5 6 4 6 6 6 6 5 6 7 7 6 5 5 6 10 16 15 15 14 14 14 15 15 15 15 15 14 15
5 4 3 2 4 3 3 3 2 2 2 3 3 2 2 1 1 1 2 0 1 1 1 2 2 2 2 3 3 2 1 0 2 2 1 1 1 1 1 0 1 1 1 1 1 1 2 2 2 2 3 4 4 4 3 4 5 5 5 5 3 6 6 4 5 6 5 6 5 6 6 7 9 15 14 15 14 14 15 15 15 15 15 15 15
3 3 2 4 2 2 2 2 3 2 3 2 2 2 1 1 1 1 1 1 1 1 1 2 2 2 2 2 3 3 2 2 2 0 1 1 1 1 0 1 0 1 1 1 1 2 1 2 2 3 3 4 3 3 3 4 4 4 5 4 5 5 4 4 5 5 5 6 5 4 5 4 6 6 10 14 13 14 14 15 15 15 14 16 16
1 2 3 3 2 2 1 2 2 3 2 3 2 2 1 1 1 1 1 1 1 1 1 2 1 2 2 2 3 3 3 3 3 2 2 2 1 0 1 0 1 2 1 1 2 1 1 1 1 3 2 3 4 2 3 4 3 4 4 4 4 5 5 5 4 4 5 5 4 5 5 5 5 8 6 6 13 15 14 15 14 14 13 14 16
3 3 2 2 3 3 3 3 2 2 3 3 3 3 3 2 2 1 1 0 0 1 1 2 2 2 2 2 3 3 3 3 3 3 3 2 2 1 1 1 1 1 1 0 2 1 1 1 0 2 3 3 3 3 3 3 3 4 3 4 4 3 4 4 4 5 4 4 5 3 4 4 4 4 4 7 7 12 16 14 14 15 13 13 14
4 3 3 2 2 3 3 4 3 2 2 2 1 1 2 3 3 2 2 1 1 1 2 1 1 2 2 3 3 3 4 3 3 3 3 2 2 2 1 2 2 1 1 1 2 1 1 1 1 1 3 2 3 3 4 3 3 3 3 4 4 3 4 4 4 3 3 5 5 4 4 3 2 1 3 4 4 5 15 17 16 15 14 13 12
4 5 5 4 4 4 4 4 3 3 2 2 2 3 2 2 2 2 2 2 1 1 1 1 1 2 2 3 3 3 3 3 2 2 1 2 1 2 1 2 1 1 1 2 1 1 1 2 2 2 2 3 3 3 3 3 3 4 4 4 4 3 3 3 3 3 4 5 4 4 3 1 3 4 3 4 4 5 5 14 16 16 15 14 13
8 7 5 4 4 4 3 4 4 3 2 2 1 1 2 2 1 1 1 1 1 0 1 1 1 1 1 2 2 2 2 1 2 2 2 1 1 1 2 1 1 2 2 3 2 2 2 2 2 2 2 2 2 2 3 3 3 3 4 4 4 5 4 3 3 4 3 3 3 3 4 3 3 3 3 4 4 4 6 5 8 8 11 17 14
6 7 8 6 6 4 4 4 4 4 3 2 1 2 1 1 2 1 1 1 1 1 0 1 0 0 1 1 1 0 0 0 0 1 1 1 1 0 0 1 1 2 2 2 2 2 3 3 3 4 3 3 3 2 2 3 3 4 4 4 5 5 6 5 5 5 4 5 5 4 4 2 3 3 4 4 4 5 5 6 7 7 7 10 18
8 8 8 8 8 7 6 5 4 4 4 4 3 3 2 1 1 1 1 1 1 1 1 1 1 1 0 0 0 0 1 1 1 1 1 2 2 1 2 2 1 2 1 2 2 2 2 3 3 3 4 4 3 2 3 4 5 4 3 4 4 5 5 5 6 6 6 5 4 5 5 5 4 3 3 3 4 5 5 6 6 7 8 8 9
10 9 9 8 8 7 6 5 3 3 3 4 4 3 2 3 3 2 2 1 1 1 1 0 1 0 1 1 1 1 2 2 2 1 2 3 2 2 2 2 2 1 1 1 2 2 2 2 3 4 3 4 3 2 2 4 5 5 4 4 5 5 5 5 6 7 6 5 5 5 4 5 5 5 3 4 5 5 8 7 6 6 5 5 7
9 9 8 8 7 6 6 5 4 4 3 4 5 4 4 3 4 3 3 3 1 1 2 2 2 2 1 2 2 2 3 3 2 2 2 3 2 3 3 2 3 2 2 2 3 3 3 3 4 4 3 2 3 1 2 3 4 3 3 4 5 5 5 5 5 5 5 4 3 5 5 5 6 5 3 4 4 5 7 5 5 4 4 5 6
8 8 8 7 5 5 5 6 4 3 4 3 4 6 5 5 5 5 4 4 3 2 2 2 3 3 3 3 3 2 2 3 3 3 3 3 3 3 3 3 2 2 3 4 4 4 4 4 4 4 4 5 4 2 0 3 4 4 4 3 2 3 5 6 5 5 5 5 6 6 5 5 5 5 4 5 4 3 3 5 5 2 3 4 4
8 9 8 7 5 6 6 6 7 7 6 7 7 7 5 5 4 5 5 5 4 4 3 3 2 2 3 3 3 3 3 4 3 4 4 4 4 4 4 4 4 3 3 4 5 4 4 4 4 4 4 4 4 2 2 3 4 4 5 4 5 6 4 1 3 3 4 5 4 5 2 4 4 2 3 3 3 3 3 4 3 3 2 2 3
7 8 8 8 8 7 7 7 7 8 9 10 11 8 6 5 4 4 4 5 5 4 4 3 3 3 3 2 4 4 4 4 4 4 5 5 5 5 5 5 5 4 4 4 4 4 3 4 4 4 4 4 4 4 4 3 3 4 5 5 5 5 4 1 3 4 4 4 3 2 1 3 2 3 2 1 1 2 3 3 1 3 2 2 3
8 7 8 8 9 8 8 8 7 6 7 7 7 8 8 6 6 7 8 8 5 3 2 3 4 4 3 4 4 4 5 5 5 4 5 5 5 6 6 6 5 5 5 5 4 4 5 6 4 4 4 3 3 5 5 3 3 5 4 4 6 6 5 5 5 3 3 3 3 1 2 2 2 0 1 3 3 1 1 3 2 2 3 3 4
9 9 8 8 9 10 9 9 8 8 7 7 8 7 8 7 7 6 4 6 11 9 4 4 4 5 5 5 4 4 4 4 5 6 5 6 6 6 6 6 6 5 5 5 5 5 5 3 3 4 3 3 4 5 4 4 4 3 3 4 5 5 6 6 7 6 5 4 5 4 3 3 2 2 1 4 3 3 4 3 4 3 3 3 4
9 9 8 8 7 8 9 9 9 8 8 10 8 8 7 7 8 8 7 4 3 7 8 8 9 8 5 5 5 3 3 4 5 6 6 6 6 6 6 6 6 6 6 6 5 5 6 5 5 5 5 4 3 4 4 4 4 4 4 5 5 5 5 6 6 6 6 6 5 5 4 4 2 3 1 1 2 4 4 4 5 5 4 4 4
8 9 8 8 8 7 8 9 10 8 8 8 8 9 9 8 7 7 9 8 7 6 5 4 4 8 12 10 4 3 3 3 4 5 6 7 7 7 7 7 7 6 6 6 5 6 6 6 6 6 5 5 3 4 5 3 4 3 4 3 4 4 5 5 5 6 6 7 6 6 7 6 5 3 2 3 4 4 5 5 6 5 4 4 4
7 7 7 8 8 8 8 9 9 7 8 8 9 9 8 8 7 8 9 9 10 9 8 6 5 6 5 8 10 8 6 4 4 4 5 7 7 7 7 7 6 6 6 7 6 6 6 6 6 7 6 6 4 4 4 4 4 4 5 4 5 5 4 5 4 5 5 5 5 7 5 4 4 6 4 3 3 4 5 6 6 6 5 4 4
Wind_Direction
118 118 125 140 151 168 176 162 160 127 122 121 117 116 117 118 118 119 120 113 109 111 113 115 119 121 123 123 121 116 114 115 114 112 106 100 98 99 102 102 113 115 114 111 106 107 108 110 111 113 113 110 110 113 112 111 108 109 106 100 97 100 105 103 102 104 108 103 95 100 106 110 101 103 105 106 103 105 115 141 157 104 107 104 93
135 122 123 140 156 164 159 166 144 118 117 115 113 109 109 114 116 114 108 107 108 108 109 111 114 116 117 116 112 112 113 115 114 109 104 102 98 97 100 103 105 113 112 112 115 111 110 104 103 103 105 107 108 109 109 109 108 103 97 99 105 112 111 108 103 106 113 116 112 113 114 105 102 105 106 105 106 109 98 77 324 122 86 95 101
121 116 118 122 138 147 149 145 150 127 120 117 113 107 107 106 110 110 110 112 113 108 105 104 105 105 103 103 104 107 110 110 108 104 103 100 96 95 97 103 105 109 113 109 108 108 107 106 105 106 108 106 105 106 112 108 110 105 106 109 118 123 121 116 114 108 101 103 121 113 110 110 103 101 107 103 103 93 93 77 69 78 101 105 104
119 117 108 117 125 132 137 150 145 134 128 123 118 113 109 108 103 104 108 107 105 101 100 99 98 98 98 98 99 103 105 104 103 104 103 102 101 102 108 110 113 116 117 117 117 109 107 106 106 109 111 113 109 113 115 113 113 115 114 116 123 128 124 120 112 111 105 104 114 122 120 112 112 112 105 107 106 96 76 75 73 82 106 104 98
115 115 117 129 125 130 136 139 139 133 132 128 125 119 111 106 103 103 106 102 98 98 97 97 98 99 99 98 100 100 102 102 104 108 105 102 106 81 65 72 105 112 118 119 110 108 109 111 114 115 117 116 117 119 114 115 117 119 119 118 104 82 103 103 103 109 122 139 148 159 108 110 106 105 106 106 101 100 102 102 105 109 103 100 99
114 102 110 118 124 125 130 133 131 130 130 129 128 124 120 113 107 104 103 101 101 100 100 100 100 100 102 102 104 103 106 112 115 117 118 116 90 92 109 91 95 90 99 106 114 114 117 116 116 118 119 115 117 119 120 123 123 120 105 103 99 104 111 115 117 128 154 162 191 149 128 118 104 121 116 113 114 105 110 107 110 110 110 111 106
104 94 100 108 120 122 127 127 128 130 130 130 128 127 125 124 119 115 110 109 108 105 103 102 102 101 100 105 107 110 114 119 123 123 127 93 95 121 118 100 92 76 95 109 109 111 117 116 115 118 118 120 120 123 126 124 123 117 114 92 108 110 117 124 137 148 173 203 160 124 116 110 106 100 124 126 124 114 110 112 112 118 118 118 128
104 103 111 119 118 120 119 122 126 127 128 128 128 127 125 127 126 120 119 115 113 111 108 108 107 105 102 101 105 106 108 108 113 118 93 99 126 133 113 114 98 101 92 94 99 115 117 117 118 121 122 124 122 122 121 116 117 120 110 108 110 120 126 126 129 173 196 238 108 96 105 104 104 106 116 121 122 121 117 113 116 118 116 110 100
109 119 114 113 108 103 112 119 122 123 125 126 126 124 127 128 128 126 126 123 120 118 118 115 114 111 108 106 103 104 109 112 111 117 112 110 129 134 138 127 117 113 114 115 104 133 121 126 126 127 128 127 127 126 127 124 124 126 119 115 117 121 128 127 152 189 216 120 121 99 107 109 119 118 126 126 131 127 125 122 123 112 109 111 120
114 119 108 96 116 103 104 116 116 120 123 127 128 129 130 132 132 133 131 126 124 121 118 114 111 109 109 107 106 108 107 109 111 117 122 129 131 138 135 123 121 125 117 122 127 132 127 130 132 133 131 130 132 134 132 135 135 132 128 120 126 128 129 145 166 227 82 148 133 118 40 342 118 121 128 130 124 125 147 106 76 95 97 108 97
119 106 105 119 114 105 108 114 117 119 122 128 129 128 130 133 136 133 129 127 124 119 114 113 111 111 109 108 107 108 111 106 105 111 115 133 144 149 165 136 126 137 135 139 132 126 138 142 142 137 135 135 138 140 136 134 139 137 131 128 128 137 146 175 204 130 129 102 93 103 112 331 122 118 139 131 129 135 105 94 101 106 109 107 109
112 115 117 119 119 112 111 104 109 112 116 119 129 131 133 135 138 134 131 128 128 123 119 115 114 112 109 108 108 106 105 107 106 105 113 129 146 156 153 137 131 131 156 143 139 137 140 155 144 140 139 142 147 145 143 120 121 139 137 133 130 156 181 193 231 99 122 134 115 124 133 176 105 109 134 127 129 126 115 107 117 117 121 116 119
109 104 120 112 111 109 100 96 98 111 121 129 132 132 135 137 137 136 132 129 124 121 116 114 112 108 107 106 105 103 102 103 106 113 111 116 131 134 124 123 125 135 147 141 140 139 156 151 144 143 140 144 149 154 128 120 126 136 140 138 143 168 214 207 221 146 114 115 139 141 131 120 111 108 133 134 127 124 124 124 124 129 124 124 120
104 108 128 126 116 107 97 94 102 107 112 119 125 129 133 136 135 128 128 127 122 119 113 113 108 106 104 106 102 101 100 100 103 106 115 125 130 125 117 128 136 145 147 127 145 144 145 145 148 143 146 146 153 156 149 143 146 146 145 143 149 175 241 233 274 132 126 122 160 137 119 132 123 124 135 136 136 131 131 131 127 130 129 126 127
109 128 114 114 117 107 99 96 92 88 98 113 121 119 124 124 125 127 126 124 124 116 115 109 109 109 109 108 105 105 108 108 110 110 115 117 125 132 133 131 136 140 142 146 147 143 142 148 152 150 151 152 155 162 162 161 168 163 170 171 171 187 227 211 178 109 120 137 128 139 131 104 119 137 149 164 138 140 139 140 137 130 128 133 129
104 106 112 103 108 113 114 107 101 104 109 114 115 117 124 123 122 125 125 124 123 119 112 107 105 103 103 100 100 103 108 113 113 116 117 121 127 140 137 136 139 140 141 143 142 144 147 156 154 152 155 152 156 161 167 171 174 178 178 192 210 211 230 271 165 141 133 156 150 142 130 116 130 147 154 157 142 143 151 146 146 142 138 137 135
97 97 93 100 105 108 116 118 117 126 128 125 126 128 124 127 126 126 124 124 121 118 113 110 99 98 98 100 97 95 111 116 112 116 116 116 131 140 140 137 137 144 144 142 145 146 151 154 152 153 155 155 157 161 171 177 179 177 190 201 218 226 233 248 231 165 153 146 155 155 155 135 142 158 160 153 153 152 153 153 152 145 143 139 142
99 101 97 92 92 108 115 127 126 126 130 120 119 127 127 126 123 121 119 118 121 123 121 113 103 93 85 77 72 70 46 103 122 117 114 114 127 139 142 140 143 147 146 145 145 147 151 153 154 152 154 154 157 163 165 171 170 168 181 210 211 228 228 230 237 169 143 145 168 160 177 128 149 170 166 161 158 160 155 151 153 148 149 151 162
104 96 90 93 101 110 114 119 129 137 113 337 101 122 114 114 120 115 116 115 120 117 122 107 98 98 90 86 90 78 71 21 100 121 115 117 121 138 144 151 143 148 145 145 146 147 150 153 150 153 153 150 149 155 163 154 155 176 182 195 217 223 221 219 236 165 138 182 158 177 111 133 153 172 173 167 161 160 158 151 153 153 153 156 166
99 103 100 96 105 100 86 77 58 101 124 118 241 100 77 143 121 116 109 116 113 119 117 95 88 88 90 104 107 122 131 151 222 139 115 120 142 130 144 148 145 142 146 145 147 148 151 149 149 155 152 150 146 141 149 169 180 175 198 191 212 218 204 212 220 169 159 161 163 154 116 134 156 174 173 176 166 168 163 160 162 156 157 160 168
113 113 113 109 87 78 67 56 63 58 101 84 41 11 138 153 123 122 123 114 112 105 106 112 120 111 132 131 161 162 124 142 155 225 141 117 129 137 145 152 153 147 146 146 150 152 153 149 149 150 151 141 152 153 160 176 185 210 203 207 207 218 200 206 204 180 186 140 194 124 127 131 159 175 175 178 175 174 172 169 171 167 169 168 173
121 111 101 83 74 62 58 15 109 70 27 148 169 152 140 245 161 155 141 120 119 153 161 98 117 120 142 174 200 147 184 163 285 81 249 164 139 132 147 154 153 155 144 145 146 152 154 149 146 147 155 172 177 192 170 167 190 195 206 218 228 212 188 188 203 200 172 152 197 118 138 149 163 188 185 182 181 174 176 177 175 175 180 180 180
104 100 91 74 52 68 55 66 46 60 65 15 40 70 149 199 153 109 109 84 168 230 133 182 159 161 115 90 229 136 211 171 150 121 87 53 112 138 143 154 154 154 147 130 132 134 146 155 152 154 170 205 207 213 198 178 170 176 207 220 218 209 172 175 188 207 195 143 181 127 138 163 173 196 190 185 188 182 181 182 176 180 182 190 193
91 80 84 71 66 74 77 56 63 45 4 30 19 37 38 27 131 130 140 154 191 161 152 178 105 43 108 56 56 4 63 89 110 135 179 158 129 136 140 142 141 143 142 155 144 127 125 124 146 173 208 206 212 200 208 189 192 199 199 216 210 168 197 181 188 190 216 161 144 137 145 167 186 195 194 194 190 196 192 188 183 182 190 201 197
67 73 74 74 69 54 59 61 41 44 28 42 8 18 17 359 15 64 79 70 105 156 132 137 86 94 68 136 91 291 254 112 191 179 235 162 139 173 159 154 208 135 189 187 198 163 194 180 176 202 214 219 220 223 231 195 216 218 221 210 230 189 203 193 183 195 197 176 121 145 153 169 186 204 197 204 200 196 197 195 189 190 189 203 205
62 71 56 77 51 50 33 44 54 35 21 22 28 61 311 9 22 37 350 67 76 33 40 99 112 26 329 26 357 179 262 228 155 224 188 196 202 157 226 113 152 133 177 197 205 244 213 200 211 201 207 224 219 223 223 229 212 227 235 213 212 229 222 200 176 204 189 186 135 151 160 171 186 201 202 206 211 203 198 196 200 200 194 204 208
13 12 41 9 33 34 55 34 41 43 45 15 11 17 42 26 352 31 321 87 64 137 87 31 44 9 335 352 288 240 248 268 199 204 227 215 180 204 155 178 171 183 176 154 152 192 221 206 205 231 217 231 226 213 210 216 239 220 220 227 234 215 239 231 184 189 197 189 140 158 166 175 186 194 203 206 213 214 206 200 207 206 203 209 209
113 106 86 98 323 47 47 45 64 51 40 44 45 39 45 45 55 146 239 38 328 25 41 32 347 3 349 326 353 314 335 287 267 221 205 237 181 137 138 192 214 276 84 258 163 167 166 331 219 244 241 230 225 229 230 213 202 249 231 224 220 245 222 244 232 200 187 193 158 163 170 181 186 189 199 203 211 217 215 208 210 210 207 212 215
113 115 112 106 47 52 66 73 71 70 58 64 68 52 50 47 35 44 4 4 28 357 28 24 328 16 14 335 352 350 332 294 288 260 241 346 54 228 182 94 292 45 132 133 325 158 173 200 222 235 235 245 237 238 243 247 217 222 237 232 228 230 226 236 237 233 208 190 202 160 175 181 189 192 197 203 208 213 216 217 214 214 208 208 217
56 82 97 90 60 71 56 53 56 52 58 38 63 62 43 49 59 63 358 339 30 20 331 23 24 319 61 19 356 2 347 327 358 301 273 58 215 100 323 36 35 1 265 105 354 305 284 212 214 219 237 242 246 231 252 236 233 233 231 240 223 238 223 236 226 228 241 203 195 162 174 182 191 193 197 204 207 208 214 217 218 218 214 214 217
86 297 60 79 83 50 62 62 52 43 31 31 38 54 33 32 37 32 32 25 21 317 345 21 23 54 33 17 352 32 347 38 321 309 280 206 187 277 265 17 336 26 301 59 11 318 306 293 279 298 254 255 242 240 249 254 243 230 218 241 242 245 243 234 245 234 232 222 202 184 177 182 193 193 197 201 204 209 212 213 217 221 219 216 217
76 45 2 41 63 52 54 55 43 47 14 37 48 47 42 51 51 35 51 26 325 308 21 24 34 37 22 358 360 353 297 129 147 228 279 261 221 301 299 266 92 216 317 346 246 254 275 308 317 293 296 283 273 249 235 243 249 260 250 217 228 236 242 241 243 246 242 236 224 211 173 189 189 197 197 198 202 209 211 212 216 218 222 218 218
65 62 108 68 57 56 61 69 64 43 32 38 30 43 36 79 78 60 72 26 282 351 13 43 44 41 27 1 345 351 319 208 167 175 189 215 169 235 239 17 309 345 330 5 288 232 238 242 219 267 275 262 257 250 250 254 249 244 256 272 244 233 242 242 248 257 257 252 240 233 225 186 193 194 200 199 204 208 210 213 217 219 220 224 222
78 143 183 82 86 89 49 65 44 47 14 26 22 23 35 46 72 77 89 250 27 350 27 32 45 68 59 34 349 1 349 349 333 289 243 191 177 195 198 167 297 303 225 241 240 264 253 265 280 252 237 258 250 249 240 243 254 251 244 247 259 265 264 246 246 250 253 260 256 253 249 232 198 180 197 201 206 207 211 217 219 223 224 224 225
56 76 54 83 94 99 96 79 64 41 5 26 5 17 27 354 62 89 74 330 46 24 38 46 48 46 55 70 26 23 8 359 347 346 334 314 246 215 260 308 298 266 261 138 279 250 254 247 249 257 247 249 256 247 264 254 246 261 272 263 246 244 248 258 262 263 242 239 253 247 246 237 238 174 189 204 202 207 214 216 222 226 226 226 226
32 26 53 64 87 109 110 81 70 51 33 19 12 358 1 355 354 35 66 37 9 58 48 52 32 35 66 62 54 31 25 18 4 352 331 335 333 337 335 11 348 309 344 29 264 253 258 273 293 277 259 248 250 249 238 246 249 254 261 269 269 259 249 242 244 256 283 274 239 235 238 236 228 242 182 203 185 216 205 214 222 226 228 224 226
40 23 31 51 50 82 92 87 70 54 45 48 17 14 338 341 342 350 356 325 329 61 75 60 58 52 38 47 52 32 31 23 11 359 342 336 334 343 357 344 333 346 3 265 232 250 231 215 189 251 280 270 247 254 252 244 247 241 242 257 258 242 250 252 248 248 267 271 274 242 241 239 234 315 228 239 228 204 189 205 214 224 227 226 228
25 16 25 19 24 36 55 59 66 58 32 16 11 327 1 316 318 341 349 335 359 1 37 20 52 43 50 58 50 36 38 27 352 354 335 322 3 2 345 318 307 282 249 248 269 255 257 246 210 197 248 262 251 239 240 243 248 245 232 226 241 251 248 243 242 247 250 253 271 271 266 258 265 248 247 226 218 223 214 191 207 215 222 229 231
9 5 16 11 15 34 40 48 50 43 40 16 333 306 311 280 265 273 284 298 286 70 336 327 39 31 66 70 61 48 41 15 356 345 332 337 30 23 332 356 273 275 267 270 246 252 260 257 260 207 217 256 289 297 295 294 266 256 257 229 226 229 236 225 236 234 224 242 249 254 255 246 262 249 252 262 233 223 229 210 198 215 227 226 233
21 4 356 4 12 22 37 35 26 14 357 354 331 316 336 332 331 303 253 290 311 259 295 307 265 66 81 36 68 95 62 253 256 356 301 334 301 299 51 252 277 275 297 298 307 309 317 299 293 287 257 234 240 263 263 272 262 245 235 248 243 244 225 205 214 224 216 217 229 236 248 239 236 266 268 259 261 244 229 234 197 208 243 215 208
33 23 16 19 16 13 18 24 18 10 357 348 345 332 331 319 278 292 301 237 263 298 220 257 311 64 337 4 113 234 199 235 251 241 248 248 260 210 231 239 252 289 328 353 350 342 332 314 309 290 285 275 243 253 281 284 275 250 217 236 227 233 243 231 228 218 213 218 223 232 237 237 235 244 250 251 257 255 248 240 245 220 213 190 212
27 18 10 6 14 13 12 7 11 6 359 341 320 304 311 323 312 310 310 304 284 259 279 183 280 83 221 198 210 202 199 213 204 207 250 269 254 240 242 244 266 274 313 357 307 304 279 278 289 275 252 288 279 303 321 299 249 256 253 220 222 207 219 225 242 235 225 207 213 228 225 239 232 228 236 254 246 243 251 241 242 253 252 261 181
35 28 18 9 6 2 1 359 1 348 343 327 318 315 312 298 291 305 289 293 234 312 316 317 304 292 257 236 225 209 216 234 231 231 227 230 258 274 262 266 267 278 254 229 226 236 263 272 259 277 285 239 289 200 303 323 300 292 256 266 241 232 189 219 227 241 231 236 217 225 219 224 229 230 219 235 253 255 252 249 242 241 257 254 267
41 41 36 27 14 356 346 339 333 323 310 313 304 305 302 302 289 290 286 281 299 248 240 257 261 256 255 246 259 243 239 271 261 239 235 234 245 244 253 250 249 251 263 255 248 243 224 239 241 247 260 280 242 219 228 303 304 303 250 254 306 269 244 219 215 209 235 217 229 235 219 230 215 214 231 244 252 255 270 273 259 234 272 268 277
40 42 43 35 24 14 354 341 332 339 336 337 324 313 302 278 258 255 259 259 246 245 237 240 242 261 269 260 259 256 267 265 269 268 272 257 243 249 248 249 244 236 248 254 246 242 238 239 251 264 259 278 278 264 224 247 269 286 295 269 227 224 237 216 206 212 239 232 229 244 205 258 232 208 229 221 240 251 258 267 282 294 284 293 265
36 33 33 37 32 24 13 356 344 347 353 353 344 327 316 302 293 274 252 237 246 238 247 249 249 255 269 289 268 268 276 274 273 277 279 271 256 252 257 258 248 239 236 252 255 241 243 257 232 244 241 233 271 275 252 187 250 262 270 286 303 308 322 341 248 213 191 249 233 247 226 228 217 214 214 227 341 7 338 272 230 238 272 281 282
32 31 32 30 27 24 20 14 11 0 356 345 334 329 322 318 307 305 310 302 281 253 251 258 266 273 264 265 279 282 272 267 264 265 261 261 263 256 249 255 259 246 240 248 246 241 236 229 217 230 254 249 241 263 259 238 190 230 231 254 275 269 273 280 261 297 216 170 255 239 183 60 52 347 115 92 94 94 26 354 5 46 55 31 22
26 28 30 28 26 25 20 21 22 19 14 3 356 359 334 337 334 321 298 295 305 313 302 280 267 263 266 264 274 258 254 260 265 265 269 263 251 253 250 247 253 254 245 238 242 236 241 236 228 253 256 264 257 261 257 241 239 200 197 228 225 248 254 258 267 268 282 239 190 204 180 179 155 64 46 106 100 83 69 36 39 42 42 34 26
29 30 30 27 27 26 26 25 28 26 25 19 12 13 4 351 344 339 334 331 275 266 303 319 317 304 285 280 277 268 257 248 255 264 266 270 260 249 249 245 245 252 243 242 240 236 229 235 216 228 235 241 245 250 257 241 231 228 194 219 234 238 230 228 258 265 254 257 240 207 209 140 227 130 118 128 123 120 97 86 70 60 46 34 32
28 28 30 33 31 28 30 30 29 29 26 23 19 19 12 357 350 344 335 329 331 331 336 336 313 312 311 309 286 279 280 244 238 251 262 269 263 256 248 242 243 245 251 256 239 231 223 222 219 225 227 238 232 230 237 247 236 253 234 229 216 221 250 247 230 244 255 263 268 246 204 205 216 140 138 161 146 134 132 131 122 106 78 72 63
27 27 26 28 31 31 26 32 31 29 25 24 22 24 26 19 11 355 341 329 326 325 323 328 335 310 310 304 318 313 308 306 288 268 261 269 264 260 259 259 244 241 246 250 243 234 223 220 217 217 221 225 224 222 229 236 239 225 234 227 237 226 236 236 233 240 259 263 257 264 259 215 262 143 168 111 150 156 156 152 138 134 128 101 67